NUSTAR

导读

**NuSTAR(核光谱望远镜阵列)** 是美国航空航天局(NASA)主导的X射线太空望远镜,属于小探测工程项目,于2012年6月13日通过空射火箭成功发射入轨。该卫星专注于观测5-80keV的高能X射线,核心科学目标是探测超大质量黑洞、活动星系核的粒子加速机制,以及超新星残骸中的重元素形成过程,其成像清晰度与灵敏度远超同波段前代设备,填补了高能X波段天文观测的空白,为人类研究极端宇宙环境提供了关键数据。

基本信息
目录编号:
38358
目录名称:
NUSTAR
国际标识:
2012-031A
轨道中心:
EARTH
卫星名称:
NUSTAR
卫星全名:
--
卫星状态:
在轨 (已飞行5144 天)
发射日期:
2012-06-13 UTC
国别 :
美国 (US)
星等 :
--
轨道信息
数据来源 国际轨道数据
星历时间: 2026-07-14T00:00:02+0800
11小时前
查看轨道信息
半长轴: 6917.279km
偏心率: 0.0007273
轨道倾角: 6.026°
近地点辐角 153.618°
升交点赤经 195.481°
平近点角 168.409°
近地点: 534.111km
远地点: 544.173km
周期: 95.425分钟
每日圈数: 15.09037
详细信息
使用方式:
暂无
2D轨道图
3D轨道图
轨道高度分析图
轨道倾角分析图
轨道综合分析图
查看轨道综合分析图